Content
SEND FEEDBACK

Daily
Averages
Monthly
Summary
United States of America

BEAVER ISLAND, MICHIGAN


Home > North America > United States > Michigan
Elevation: 627 feet     Latitude: 45 43N     Longitude: 085 31W

WEATHER
 
SELECT A DAY
Number of Records: 332,109;   Date Range: 9/12/01 - 12/17/14
 
SHARE

PRINT THIS DATA

[ ← Previous Day ]
WEATHER ALMANAC - AUGUST 25, 2014
[ Next Day → ]
[ °C ]   °F
Weather ElementAverageHighLow
Temperature71.9 °F79.7 °F (1:55 pm)66.4 °F (10:56 pm)
Dewpoint67.3 °F72 °F (3:15 pm)64.4 °F (8:34 am)
Humidity85.9 %97 % (10:15 pm)64 % (1:15 pm)
Barometer29.99 in30.06 in (1:55 am)29.93 in (4:54 pm)
Wind Speed8.5 mph15 mph (1:34 pm)
Wind Gust21.9 mph (2:54 pm)
Weather ElementAverage
Visibility7.8 mi
Wind DirectionSSE (171.7 °)

Weather ElementTotal
Precipitation---
Cooling Degree Days8.1 (Base 65)
Growing Degree Days23.1 (Base 50)
Averaged from 69 records on August 25, 2014
WEATHER CONDITIONS BREAKOUT
WIND DIRECTION BREAKOUT
WEATHER BY HOUR - AUGUST 25, 2014
[ °C ]   °F
Local TimeTemperatureDewpointHumidityBarometerVisibilityWind DirectionWind SpeedGust SpeedPrecipitationEventsConditions
12:15 AM68.0 °F64.6 °F89 %30.06 in10.0 miSE (140°)5.8 mphClear
12:35 AM68.0 °F64.6 °F89 %30.05 in10.0 miSE (140°)8.1 mphClear
12:54 AM67.6 °F64.8 °F90 %30.04 in10.0 miSE (140°)5.8 mphClear
1:15 AM67.3 °F64.6 °F91 %30.04 in10.0 miSE (130°)6.9 mphClear
1:34 AM67.1 °F64.6 °F92 %30.03 in10.0 miSE (130°)6.9 mphClear
1:54 AM66.7 °F64.6 °F93 %30.03 in10.0 miSE (130°)6.9 mphClear
2:15 AM66.4 °F64.4 °F93 %30.02 in7.0 miSE (130°)8.1 mphClear
2:35 AM66.6 °F64.4 °F93 %30.02 in7.0 miSE (140°)6.9 mphClear
2:54 AM66.7 °F64.6 °F93 %30.02 in7.0 miSSE (150°)9.2 mphClear
3:14 AM67.1 °F64.8 °F92 %30.02 in7.0 miSSE (160°)6.9 mphClear
3:35 AM67.1 °F64.9 °F93 %30.04 in7.0 miSouth (170°)4.6 mphClear
3:54 AM67.1 °F65.3 °F94 %30.03 in5.0 miSSE (160°)8.1 mphClear
4:15 AM67.3 °F65.3 °F93 %30.03 in5.0 miSSE (160°)9.2 mphClear
4:35 AM67.5 °F65.5 °F93 %30.03 in5.0 miSSE (160°)8.1 mph16.1 mphClear
5:15 AM68.0 °F65.7 °F92 %30.02 in7.0 miSSE (150°)10.4 mphOvercast
5:35 AM68.0 °F65.7 °F92 %30.03 in7.0 miSSE (150°)8.1 mphMostly Cloudy
5:54 AM67.6 °F65.7 °F93 %30.02 in7.0 miSE (140°)9.2 mphScattered Clouds
6:15 AM68.0 °F65.7 °F92 %30.02 in7.0 miSSE (150°)8.1 mphMostly Cloudy
6:35 AM67.6 °F65.7 °F93 %30.02 in7.0 miSSE (150°)8.1 mphOvercast
6:55 AM67.6 °F65.8 °F94 %30.02 in7.0 miSSE (160°)6.9 mphMostly Cloudy
7:14 AM68.2 °F66.2 °F93 %30.01 in5.0 miSSE (150°)8.1 mphOvercast
7:35 AM68.9 °F66.4 °F92 %30.01 in5.0 miSouth (170°)8.1 mphOvercast
7:55 AM69.3 °F66.4 °F91 %30.01 in5.0 miSSE (160°)6.9 mphOvercast
8:15 AM70.0 °F66.9 °F90 %30.00 in7.0 miSSE (160°)9.2 mphOvercast
8:34 AM71.4 °F67.1 °F86 %30.00 in7.0 miSouth (170°)5.8 mphScattered Clouds
8:55 AM72.1 °F67.3 °F85 %30.00 in7.0 miSSE (160°)6.9 mphScattered Clouds
9:14 AM70.0 °F66.7 °F89 %30.04 in5.0 miWest (260°)8.1 mph19.6 mphRainLight Rain
9:35 AM70.0 °F67.1 °F91 %30.04 in5.0 miCalmOvercast
9:54 AM68.5 °F67.3 °F96 %30.03 in1.0 miCalmRainHeavy Rain
10:34 AM68.7 °F67.8 °F97 %30.02 in2.0 miEast (80°)3.5 mphOvercast
10:55 AM69.4 °F68.5 °F97 %29.99 in2.5 miEast (100°)8.1 mphOvercast
11:15 AM69.3 °F68.4 °F97 %29.99 in3.0 miESE (120°)10.4 mphOvercast
11:35 AM69.8 °F68.9 °F97 %29.97 in3.0 miESE (120°)11.5 mphOvercast
11:54 AM72.0 °F70.0 °F93 %29.98 in5.0 miSE (140°)10.4 mphMostly Cloudy
12:15 PM72.9 °F69.8 °F90 %29.97 in7.0 miSSE (150°)10.4 mph17.3 mphScattered Clouds
12:35 PM72.5 °F69.4 °F90 %29.99 in7.0 miSouth (180°)10.4 mph18.4 mphMostly Cloudy
12:55 PM72.5 °F69.4 °F90 %29.99 in7.0 miSSE (160°)8.1 mphOvercast
1:15 PM74.3 °F70.3 °F87 %30.00 in7.0 miSouth (190°)4.6 mphMostly Cloudy
1:35 PM76.1 °F70.9 °F84 %29.99 in7.0 miSSW (210°)6.9 mphMostly Cloudy
1:55 PM75.4 °F71.1 °F86 %29.98 in7.0 miSW (220°)8.1 mphOvercast
2:15 PM75.7 °F70.9 °F85 %29.98 in7.0 miSW (230°)8.1 mphMostly Cloudy
2:35 PM77.2 °F71.2 °F82 %29.98 in7.0 miSSW (210°)4.6 mphScattered Clouds
2:54 PM79.2 °F71.8 °F78 %29.96 in10.0 miSouth (170°)8.1 mphClear
3:15 PM79.0 °F72.0 °F79 %29.98 in10.0 miSSE (150°)8.1 mph16.1 mphClear
3:34 PM78.6 °F71.4 °F78 %29.99 in10.0 miSouth (170°)9.2 mphClear
3:55 PM77.7 °F71.1 °F80 %29.99 in10.0 miSouth (170°)8.1 mph18.4 mphScattered Clouds
4:14 PM78.1 °F70.9 °F78 %29.98 in10.0 miSouth (180°)11.5 mph17.3 mphClear
4:35 PM79.0 °F71.6 °F78 %29.97 in10.0 miSouth (180°)8.1 mph16.1 mphClear
4:55 PM78.8 °F71.4 °F78 %29.96 in10.0 miSouth (190°)6.9 mphClear
5:15 PM79.7 °F68.9 °F69 %29.95 in10.0 miSSW (200°)11.5 mphScattered Clouds
5:35 PM79.3 °F66.9 °F66 %29.94 in10.0 miSSW (210°)8.1 mphClear
5:55 PM79.0 °F65.7 °F64 %29.94 in10.0 miSSW (210°)11.5 mph17.3 mphClear
6:15 PM79.0 °F66.2 °F65 %29.94 in10.0 miSSW (200°)9.2 mphClear
6:35 PM79.7 °F66.4 °F64 %29.94 in10.0 miSSW (200°)8.1 mphClear
6:55 PM78.1 °F66.2 °F67 %29.94 in10.0 miSouth (180°)5.8 mphClear
7:15 PM78.1 °F66.7 °F68 %29.95 in10.0 miSW (220°)8.1 mphClear
7:34 PM77.2 °F67.1 °F71 %29.94 in10.0 miSSW (210°)9.2 mphClear
7:55 PM76.5 °F66.2 °F70 %29.94 in10.0 miSSW (210°)9.2 mph16.1 mphClear
8:15 PM75.4 °F66.4 °F73 %29.94 in10.0 miSW (230°)10.4 mphClear
8:35 PM72.5 °F67.1 °F83 %29.94 in10.0 miSW (230°)9.2 mphClear
8:55 PM71.6 °F66.6 °F84 %29.94 in10.0 miSW (230°)12.7 mph18.4 mphClear
9:14 PM71.6 °F67.1 °F86 %29.93 in10.0 miSW (220°)10.4 mph19.6 mphClear
9:34 PM70.7 °F67.3 °F89 %29.93 in10.0 miSW (230°)11.5 mphClear
9:55 PM70.7 °F68.0 °F91 %29.93 in10.0 miSW (230°)11.5 mph17.3 mphClear
10:15 PM70.7 °F68.0 °F91 %29.94 in10.0 miSW (230°)10.4 mph18.4 mphClear
10:34 PM70.3 °F67.1 °F89 %29.94 in10.0 miSW (230°)13.8 mph20.7 mphClear
11:15 PM70.2 °F66.2 °F87 %29.94 in10.0 miSW (230°)13.8 mph19.6 mphClear
11:35 PM70.3 °F65.7 °F85 %29.94 in10.0 miSW (230°)15.0 mph21.9 mphClear
11:55 PM70.3 °F65.7 °F85 %29.94 in10.0 miSW (230°)13.8 mph20.7 mphClear
Hourly data recorded from KSJX, located miles away from Beaver Island, Michigan







STORIES FROM OUR PARTNERS